TimeCDT,TemperatureF,Dew PointF,Humidity,Sea Level PressureIn,VisibilityMPH,Wind Direction,Wind SpeedMPH,Gust SpeedMPH,PrecipitationIn,Events,Conditions,WindDirDegrees,DateUTC
12:13 AM,60.8,51.8,72,30.07,10.0,Calm,Calm,-,N/A,,Unknown,0,2013-08-01 05:13:00
12:33 AM,60.8,53.6,77,30.07,10.0,Calm,Calm,-,N/A,,Unknown,0,2013-08-01 05:33:00
12:52 AM,60.8,51.8,72,30.07,10.0,WSW,3.5,-,N/A,,Clear,240,2013-08-01 05:52:00
1:13 AM,59.0,53.6,82,30.07,10.0,Calm,Calm,-,N/A,,Unknown,0,2013-08-01 06:13:00
1:33 AM,59.0,53.6,82,30.07,10.0,WSW,3.5,-,N/A,,Unknown,240,2013-08-01 06:33:00
1:53 AM,60.8,53.6,77,30.06,10.0,WSW,3.5,-,N/A,,Clear,250,2013-08-01 06:53:00
2:13 AM,57.2,53.6,88,30.07,10.0,Calm,Calm,-,N/A,,Unknown,0,2013-08-01 07:13:00
2:32 AM,57.2,53.6,88,30.06,10.0,Calm,Calm,-,N/A,,Unknown,0,2013-08-01 07:32:00
2:52 AM,57.2,53.6,88,30.06,10.0,WSW,3.5,-,N/A,,Unknown,250,2013-08-01 07:52:00
3:13 AM,57.2,53.6,88,30.06,10.0,WSW,3.5,-,N/A,,Unknown,240,2013-08-01 08:13:00
3:32 AM,57.2,53.6,88,30.05,10.0,WSW,3.5,-,N/A,,Clear,250,2013-08-01 08:32:00
3:53 AM,57.2,53.6,88,30.06,10.0,WSW,4.6,-,N/A,,Unknown,250,2013-08-01 08:53:00
4:13 AM,57.2,53.6,88,30.06,10.0,WSW,4.6,-,N/A,,Scattered Clouds,250,2013-08-01 09:13:00
4:32 AM,57.2,53.6,88,30.05,10.0,WSW,3.5,-,N/A,,Scattered Clouds,250,2013-08-01 09:32:00
4:53 AM,57.2,55.4,94,30.05,10.0,WSW,3.5,-,N/A,,Scattered Clouds,240,2013-08-01 09:53:00
5:13 AM,57.2,55.4,94,30.05,10.0,WSW,3.5,-,N/A,,Clear,250,2013-08-01 10:13:00
5:32 AM,57.2,53.6,88,30.05,10.0,WSW,3.5,-,N/A,,Unknown,250,2013-08-01 10:32:00
5:53 AM,57.2,53.6,88,30.06,10.0,WSW,3.5,-,N/A,,Unknown,250,2013-08-01 10:53:00
6:13 AM,57.2,53.6,88,30.05,10.0,WSW,4.6,-,N/A,,Scattered Clouds,250,2013-08-01 11:13:00
6:32 AM,57.2,53.6,88,30.05,10.0,Calm,Calm,-,N/A,,Scattered Clouds,0,2013-08-01 11:32:00
6:53 AM,60.8,55.4,82,30.05,10.0,West,3.5,-,N/A,,Overcast,270,2013-08-01 11:53:00
7:13 AM,62.6,57.2,82,30.05,10.0,Calm,Calm,-,N/A,,Mostly Cloudy,0,2013-08-01 12:13:00
7:32 AM,62.6,57.2,82,30.05,10.0,Calm,Calm,-,N/A,,Scattered Clouds,0,2013-08-01 12:32:00
7:53 AM,64.4,55.4,73,30.05,10.0,Calm,Calm,-,N/A,,Unknown,0,2013-08-01 12:53:00
8:13 AM,64.4,55.4,73,30.04,10.0,Calm,Calm,-,N/A,,Unknown,0,2013-08-01 13:13:00
8:32 AM,66.2,57.2,73,30.05,10.0,Calm,Calm,-,N/A,,Unknown,0,2013-08-01 13:32:00
8:53 AM,66.2,57.2,73,30.05,10.0,West,3.5,-,N/A,,Clear,280,2013-08-01 13:53:00
9:13 AM,69.8,57.2,64,30.05,10.0,West,4.6,-,N/A,,Clear,260,2013-08-01 14:13:00
9:32 AM,69.8,57.2,64,30.04,10.0,West,4.6,-,N/A,,Scattered Clouds,260,2013-08-01 14:32:00
9:53 AM,71.6,55.4,57,30.04,10.0,WSW,4.6,-,N/A,,Mostly Cloudy,250,2013-08-01 14:53:00
10:13 AM,71.6,53.6,53,30.04,10.0,West,4.6,-,N/A,,Scattered Clouds,270,2013-08-01 15:13:00
10:32 AM,73.4,53.6,50,30.04,10.0,West,3.5,-,N/A,,Scattered Clouds,260,2013-08-01 15:32:00
10:53 AM,73.4,51.8,47,30.04,10.0,West,3.5,-,N/A,,Scattered Clouds,280,2013-08-01 15:53:00
11:12 AM,75.2,51.8,44,30.04,10.0,SW,4.6,-,N/A,,Scattered Clouds,220,2013-08-01 16:12:00
11:33 AM,75.2,53.6,47,30.04,10.0,Calm,Calm,-,N/A,,Scattered Clouds,0,2013-08-01 16:33:00
11:53 AM,75.2,55.4,50,30.03,10.0,Calm,Calm,-,N/A,,Scattered Clouds,0,2013-08-01 16:53:00
12:12 PM,75.2,51.8,44,30.02,10.0,South,3.5,-,N/A,,Clear,170,2013-08-01 17:12:00
12:33 PM,77.0,51.8,41,30.01,10.0,Calm,Calm,-,N/A,,Clear,0,2013-08-01 17:33:00
12:52 PM,77.0,51.8,41,30.01,10.0,South,3.5,-,N/A,,Clear,180,2013-08-01 17:52:00
1:13 PM,77.0,55.4,47,30.00,10.0,Calm,Calm,-,N/A,,Clear,0,2013-08-01 18:13:00
1:33 PM,77.0,53.6,44,30.00,10.0,West,4.6,-,N/A,,Clear,270,2013-08-01 18:33:00
1:52 PM,78.8,55.4,44,29.99,10.0,SW,3.5,-,N/A,,Clear,220,2013-08-01 18:52:00
2:13 PM,78.8,55.4,44,29.99,10.0,SW,4.6,-,N/A,,Scattered Clouds,230,2013-08-01 19:13:00
2:33 PM,78.8,55.4,44,29.98,10.0,WSW,3.5,-,N/A,,Clear,240,2013-08-01 19:33:00
2:52 PM,78.8,55.4,44,29.97,10.0,SW,3.5,-,N/A,,Scattered Clouds,230,2013-08-01 19:52:00
3:13 PM,78.8,55.4,44,29.96,10.0,Calm,Calm,-,N/A,,Scattered Clouds,0,2013-08-01 20:13:00
3:33 PM,78.8,55.4,44,29.96,10.0,Calm,Calm,-,N/A,,Scattered Clouds,0,2013-08-01 20:33:00
3:52 PM,80.6,55.4,42,29.95,10.0,West,8.1,-,N/A,,Scattered Clouds,270,2013-08-01 20:52:00
4:13 PM,80.6,55.4,42,29.94,10.0,Calm,Calm,-,N/A,,Scattered Clouds,0,2013-08-01 21:13:00
4:33 PM,78.8,55.4,44,29.94,10.0,Calm,Calm,-,N/A,,Scattered Clouds,0,2013-08-01 21:33:00
4:52 PM,78.8,55.4,44,29.93,10.0,ESE,3.5,-,N/A,,Scattered Clouds,120,2013-08-01 21:52:00
5:13 PM,78.8,55.4,44,29.93,10.0,WNW,3.5,-,N/A,,Clear,290,2013-08-01 22:13:00
5:33 PM,78.8,57.2,47,29.92,10.0,West,3.5,-,N/A,,Scattered Clouds,280,2013-08-01 22:33:00
5:52 PM,80.6,57.2,45,29.92,10.0,WSW,4.6,-,N/A,,Clear,240,2013-08-01 22:52:00
6:13 PM,80.6,57.2,45,29.92,10.0,West,5.8,-,N/A,,Clear,270,2013-08-01 23:13:00
6:33 PM,80.6,57.2,45,29.92,10.0,West,4.6,-,N/A,,Clear,270,2013-08-01 23:33:00
6:53 PM,78.8,59.0,51,29.91,10.0,West,3.5,-,N/A,,Clear,260,2013-08-01 23:53:00
7:13 PM,78.8,60.8,54,29.91,10.0,WSW,3.5,-,N/A,,Clear,250,2013-08-02 00:13:00
7:33 PM,78.8,59.0,51,29.90,10.0,West,5.8,-,N/A,,Clear,270,2013-08-02 00:33:00
7:52 PM,75.2,60.8,61,29.90,10.0,West,3.5,-,N/A,,Clear,260,2013-08-02 00:52:00
8:13 PM,73.4,60.8,65,29.90,10.0,West,4.6,-,N/A,,Clear,270,2013-08-02 01:13:00
8:33 PM,73.4,57.2,57,29.90,10.0,WNW,5.8,-,N/A,,Clear,300,2013-08-02 01:33:00
8:52 PM,71.6,59.0,64,29.90,10.0,WNW,4.6,-,N/A,,Clear,300,2013-08-02 01:52:00
9:13 PM,69.8,55.4,60,29.90,10.0,NW,4.6,-,N/A,,Clear,310,2013-08-02 02:13:00
9:32 PM,71.6,55.4,57,29.90,10.0,WNW,4.6,-,N/A,,Clear,300,2013-08-02 02:32:00
9:53 PM,68.0,59.0,73,29.91,10.0,West,4.6,-,N/A,,Clear,280,2013-08-02 02:53:00
10:13 PM,69.8,57.2,64,29.92,10.0,NW,5.8,-,N/A,,Clear,310,2013-08-02 03:13:00
10:32 PM,69.8,55.4,60,29.92,10.0,WNW,5.8,-,N/A,,Clear,290,2013-08-02 03:32:00
10:53 PM,69.8,55.4,60,29.92,10.0,WNW,6.9,-,N/A,,Clear,300,2013-08-02 03:53:00
11:13 PM,68.0,57.2,68,29.92,10.0,West,4.6,-,N/A,,Clear,280,2013-08-02 04:13:00
11:33 PM,66.2,57.2,73,29.92,10.0,West,3.5,-,N/A,,Scattered Clouds,280,2013-08-02 04:33:00
11:53 PM,66.2,57.2,73,29.92,10.0,Calm,Calm,-,N/A,,Clear,0,2013-08-02 04:53:00